Highgate, VT

2:08 AM EST on November 15, 2019 (GMT -0500)
Franklin County State

Weather History for KFSO - September, 2019

Change the Weather History Date:

Tuesday, September 24, 2019

  Actual Average (KPBG) Record (KPBG)
Temperature  
Mean Temperature 61 °F -  
Max Temperature 64 °F 62 °F 86 °F (2017)
Min Temperature 57 °F 44 °F 30 °F (1963)
Degree Days  
Heating Degree Days 4    
Growing Degree Days 11 (Base 50)    
Moisture  
Dew Point 57 °F    
Average Humidity 88    
Maximum Humidity 96    
Minimum Humidity 72    
Precipitation  
Precipitation 0.00 in - - ()
Sea Level Pressure  
Sea Level Pressure 29.74 in    
Wind  
Wind Speed 1 mph (West)    
Max Wind Speed 6 mph    
Max Gust Speed -    
Visibility 10 miles    
Events Rain    
Averages and records for this station are not official NWS values.
T = Trace of Precipitation, MM = Missing Value Source: NWS Daily Summary

Daily Weather History Graph

Daily Weather History Graph

Search for Another Location

Airport or City:

Astronomy

Sep. 24, 2019 Rise Set
Actual Time 6:41 AM EDT 6:46 PM EDT
Civil Twilight 6:12 AM EDT 7:15 PM EDT
Nautical Twilight 5:38 AM EDT 7:49 PM EDT
Astronomical Twilight 5:02 AM EDT 8:24 PM EDT
Moon 1:07 AM EDT (9/24) 4:44 PM EDT (9/24)
Length of Visible Light 13h 03m
Length of Day
12h 04m
Waning Crescent, 23% of the Moon is Illuminated
Sep 24
Waning Crescent
Sep 28
New
Oct 5
First Quarter
Oct 13
Full
Oct 21
Last Quarter

Hourly Weather History & Observations

Time (EDT) Temp. Dew Point Humidity Pressure Visibility Wind Dir Wind Speed Gust Speed Precip Events Conditions
12:16 AM 65.5 °F 64.2 °F 96% 29.66 in 10.0 mi Calm Calm - N/A   Scattered Clouds
12:35 AM 64.6 °F 63.5 °F 96% 29.66 in 10.0 mi Calm Calm - N/A   Clear
12:55 AM 64.0 °F 62.8 °F 96% 29.66 in 10.0 mi Calm Calm - N/A   Scattered Clouds
1:15 AM 63.9 °F 62.6 °F 96% 29.67 in 10.0 mi Calm Calm - N/A   Mostly Cloudy
1:36 AM 63.9 °F 62.6 °F 96% 29.67 in 10.0 mi Calm Calm - N/A   Overcast
1:55 AM 63.9 °F 62.6 °F 96% 29.66 in 10.0 mi SW 3.5 mph - N/A   Mostly Cloudy
2:15 AM 63.7 °F 62.6 °F 96% 29.65 in 10.0 mi SW 3.5 mph - N/A   Mostly Cloudy
2:35 AM 63.7 °F 62.1 °F 94% 29.65 in 10.0 mi West 3.5 mph - N/A   Mostly Cloudy
2:56 AM 63.5 °F 61.7 °F 94% 29.65 in 10.0 mi Calm Calm - N/A   Scattered Clouds
3:16 AM 63.1 °F 61.7 °F 95% 29.65 in 10.0 mi Calm Calm - N/A   Mostly Cloudy
3:35 AM 63.5 °F 61.2 °F 92% 29.65 in 10.0 mi Calm Calm - N/A   Overcast
3:55 AM 63.5 °F 61.5 °F 93% 29.65 in 10.0 mi Calm Calm - N/A   Mostly Cloudy
4:16 AM 63.7 °F 61.2 °F 91% 29.65 in 10.0 mi WSW 3.5 mph - N/A   Mostly Cloudy
4:56 AM 62.6 °F 61.3 °F 96% 29.66 in 10.0 mi Calm Calm - N/A   Overcast
5:15 AM 62.2 °F 61.0 °F 96% 29.66 in 10.0 mi Calm Calm - N/A   Mostly Cloudy
5:35 AM 62.4 °F 61.0 °F 95% 29.66 in 10.0 mi Calm Calm - N/A   Mostly Cloudy
5:56 AM 62.2 °F 61.0 °F 96% 29.67 in 10.0 mi Calm Calm - N/A   Mostly Cloudy
6:16 AM 62.2 °F 61.0 °F 96% 29.67 in 10.0 mi Calm Calm - N/A   Overcast
6:35 AM 61.5 °F 60.1 °F 95% 29.68 in 7.0 mi West 3.5 mph - N/A Rain Heavy Rain
6:55 AM 60.8 °F 59.4 °F 95% 29.69 in 3.0 mi WNW 3.5 mph - N/A Rain Rain
7:15 AM 60.4 °F 59.2 °F 96% 29.70 in 10.0 mi WNW 3.5 mph - N/A   Drizzle
7:36 AM 59.9 °F 58.6 °F 96% 29.70 in 10.0 mi NNW 3.5 mph - N/A   Overcast
7:55 AM 59.9 °F 58.5 °F 95% 29.71 in 10.0 mi Calm Calm - N/A   Overcast
8:15 AM 59.9 °F 58.5 °F 95% 29.71 in 10.0 mi Calm Calm - N/A   Overcast
8:35 AM 60.4 °F 59.2 °F 96% 29.71 in 10.0 mi Calm Calm - N/A   Overcast
8:55 AM 60.3 °F 59.0 °F 96% 29.72 in 10.0 mi West 4.6 mph - N/A   Mostly Cloudy
9:16 AM 60.1 °F 59.0 °F 96% 29.73 in 10.0 mi West 3.5 mph - N/A   Overcast
9:36 AM 59.9 °F 58.6 °F 96% 29.73 in 10.0 mi West 4.6 mph - N/A   Overcast
9:55 AM 59.5 °F 58.3 °F 96% 29.73 in 10.0 mi WNW 3.5 mph - N/A   Overcast
10:16 AM 59.9 °F 58.5 °F 95% 29.74 in 10.0 mi Calm Calm - N/A   Overcast
10:35 AM 59.9 °F 58.1 °F 94% 29.74 in 10.0 mi Calm Calm - N/A   Overcast
10:56 AM 60.3 °F 58.1 °F 93% 29.74 in 10.0 mi Calm Calm - N/A   Overcast
11:15 AM 60.1 °F 56.1 °F 87% 29.74 in 10.0 mi Calm Calm - N/A   Overcast
11:35 AM 59.5 °F 56.8 °F 91% 29.74 in 10.0 mi Calm Calm - N/A   Drizzle
11:55 AM 59.2 °F 57.6 °F 94% 29.75 in 10.0 mi Calm Calm - N/A   Overcast
12:16 PM 59.4 °F 56.7 °F 91% 29.75 in 10.0 mi Calm Calm - N/A   Overcast
12:36 PM 61.2 °F 56.8 °F 86% 29.76 in 10.0 mi Calm Calm - N/A   Overcast
12:55 PM 60.8 °F 56.7 °F 86% 29.75 in 10.0 mi Calm Calm - N/A   Overcast
1:16 PM 61.3 °F 56.8 °F 85% 29.75 in 10.0 mi West 3.5 mph - N/A   Overcast
1:35 PM 62.1 °F 56.7 °F 82% 29.75 in 10.0 mi WNW 3.5 mph - N/A   Overcast
1:56 PM 61.2 °F 55.8 °F 82% 29.76 in 10.0 mi WNW 5.8 mph - N/A   Overcast
2:15 PM 62.6 °F 54.1 °F 74% 29.76 in 10.0 mi NW 4.6 mph - N/A   Overcast
2:36 PM 61.2 °F 55.0 °F 80% 29.77 in 10.0 mi Calm Calm - N/A   Overcast
2:55 PM 62.4 °F 55.0 °F 77% 29.77 in 10.0 mi WNW 3.5 mph - N/A   Overcast
3:15 PM 61.7 °F 54.3 °F 77% 29.77 in 10.0 mi West 4.6 mph - N/A   Overcast
3:36 PM 62.8 °F 54.3 °F 74% 29.77 in 10.0 mi WNW 3.5 mph - N/A   Overcast
3:56 PM 62.4 °F 53.4 °F 72% 29.77 in 10.0 mi NW 4.6 mph - N/A   Overcast
4:15 PM 61.9 °F 53.8 °F 75% 29.78 in 10.0 mi West 3.5 mph - N/A   Overcast
4:35 PM 61.7 °F 53.1 °F 73% 29.78 in 10.0 mi West 3.5 mph - N/A   Overcast
4:55 PM 62.1 °F 53.2 °F 73% 29.78 in 10.0 mi West 4.6 mph - N/A   Overcast
5:15 PM 62.2 °F 53.2 °F 72% 29.79 in 10.0 mi West 4.6 mph - N/A   Overcast
5:36 PM 61.5 °F 53.6 °F 75% 29.79 in 10.0 mi Calm Calm - N/A   Overcast
5:55 PM 60.8 °F 54.5 °F 80% 29.79 in 10.0 mi Calm Calm - N/A   Overcast
6:16 PM 60.4 °F 54.3 °F 80% 29.80 in 10.0 mi West 3.5 mph - N/A   Overcast
6:35 PM 60.1 °F 54.3 °F 81% 29.80 in 10.0 mi Calm Calm - N/A   Overcast
6:56 PM 59.5 °F 54.5 °F 83% 29.81 in 10.0 mi Calm Calm - N/A   Overcast
7:15 PM 59.2 °F 53.8 °F 82% 29.81 in 10.0 mi Calm Calm - N/A   Overcast
7:36 PM 59.0 °F 53.8 °F 83% 29.82 in 10.0 mi Calm Calm - N/A   Overcast
7:55 PM 59.0 °F 54.5 °F 85% 29.82 in 10.0 mi Calm Calm - N/A   Overcast
8:15 PM 58.8 °F 54.7 °F 86% 29.83 in 10.0 mi West 3.5 mph - N/A   Overcast
8:36 PM 58.6 °F 54.9 °F 87% 29.83 in 10.0 mi Calm Calm - N/A   Overcast
8:55 PM 58.5 °F 54.9 °F 88% 29.84 in 10.0 mi Calm Calm - N/A   Overcast
9:16 PM 58.1 °F 54.9 °F 89% 29.84 in 10.0 mi Calm Calm - N/A   Overcast
9:35 PM 58.1 °F 54.9 °F 89% 29.84 in 10.0 mi Calm Calm - N/A   Overcast
9:56 PM 58.1 °F 54.5 °F 88% 29.83 in 10.0 mi Calm Calm - N/A   Overcast
10:15 PM 57.9 °F 54.5 °F 88% 29.83 in 10.0 mi Calm Calm - N/A   Overcast
10:35 PM 57.9 °F 54.5 °F 88% 29.84 in 10.0 mi Calm Calm - N/A   Overcast
11:15 PM 58.1 °F 54.0 °F 86% 29.84 in 10.0 mi Calm Calm - N/A   Overcast
11:36 PM 58.1 °F 54.1 °F 87% 29.84 in 10.0 mi Calm Calm - N/A   Overcast
11:56 PM 58.1 °F 54.1 °F 87% 29.84 in 10.0 mi Calm Calm - N/A   Overcast